Terminal Aerodrome Forecast
Issued by NWS Sioux Falls, SD

Home | Current Version | Previous Version | Graphics & Text | Print | Product List | Glossary On
Versions: 1 2 3 4 5 6 7 8 9 10 11 12 13 14 15 16 17 18 19 20 21 22 23 24 25 26 27 28 29 30 31 32 33 34 35
960
FTUS43 KFSD 101138
TAFSUX
TAF
KSUX 101138Z 1012/1112 14008KT 5SM -SN OVC040
     FM101400 12010KT P6SM OVC050
     FM102000 11009KT P6SM OVC025
     FM110100 07007KT P6SM OVC020=

USA.gov is the U.S. government's official web portal to all federal, state and local government web resources and services.